Location: Antist
(43.1184°N, 0.1270°E)
Time: 00:07:58
(UTC+00:00)

Cosmos 1125 Rocket - Pass Details

Date: 19 January 2020
Orbit: 757 x 780 km, 74.0° (Epoch: 28 February)

Event Time Altitude Azimuth Distance (km) Brightness Sun altitude
Rises 17:36:40 0° 186° (S) 3,198 7.1 -7.9°
Reaches altitude 10° 17:39:03 10° 182° (S) 2,277 6.3 -8.3°
Maximum altitude 17:44:04 55° 105° (ESE) 908 3.6 -9.2°
Drops below altitude 10° 17:49:09 10° 29° (NNE) 2,298 5.5 -10.1°
Enters shadow 17:50:55 - 26° (NNE) 2,978 6.1 -10.4°
